EW7502 Weather Reports


time (UTC)temp
F
wind
direction
speed
knots
gust
knots
rain 1hr
in
rain 24hr
in
rain mn
in
humidity
%
barometer
mb
20260503191510 60 225 0.0 0.0 0.00 0.00 0.00 36 1011.4
20260503190008 59 196 0.0 0.0 0.00 0.00 0.00 34 1011.4
20260503184507 59 183 0.0 0.0 0.00 0.00 0.00 36 1011.4
20260503183004 57 178 0.0 0.0 0.00 0.00 0.00 40 1011.8
20260503181502 57 269 0.0 0.0 0.00 0.00 0.00 38 1011.8
20260503180112 56 153 0.0 0.0 0.00 0.00 0.00 39 1011.9
20260503174559 56 238 0.0 0.0 0.00 0.00 0.00 41 1011.9
20260503173101 55 222 0.0 0.0 0.00 0.00 0.00 40 1012.2
20260503171559 55 201 0.0 0.0 0.00 0.00 0.00 44 1012.3
20260503081538 42 26 0.0 0.0 0.00 0.00 0.00 71 1010.2
20260503071536 43 355 0.0 0.0 0.00 0.00 0.00 72 1010.1
20260503054522 45 344 0.0 0.0 0.00 0.00 0.00 68 1010.5
20260503053019 45 33 0.0 0.0 0.00 0.00 0.00 68 1010.5
20260503051524 45 290 0.0 0.0 0.00 0.00 0.00 73 1010.6
20260503050017 45 290 0.0 0.0 0.00 0.00 0.00 71 1010.6
20260503044524 45 290 0.0 0.0 0.00 0.00 0.00 71 1010.8
20260503043013 45 290 0.0 0.0 0.00 0.00 0.00 74 1010.9
20260503041511 44 63 0.0 0.0 0.00 0.00 0.00 74 1010.8
20260503040008 45 53 0.0 0.0 0.00 0.00 0.00 77 1010.9
20260503034508 45 53 0.0 0.0 0.00 0.00 0.00 76 1010.9
20260503033007 45 53 0.0 0.0 0.00 0.00 0.00 74 1010.8
20260503031506 45 53 0.0 0.0 0.00 0.00 0.00 74 1010.8
20260503030006 46 53 0.0 0.0 0.00 0.00 0.00 70 1010.9
20260503024506 47 53 0.0 0.0 0.00 0.00 0.00 69 1010.9
20260503023020 48 53 0.0 0.0 0.00 0.00 0.00 68 1010.9
20260503021504 48 174 0.0 0.0 0.00 0.00 0.00 66 1011.0
20260503020005 48 80 0.0 0.0 0.00 0.00 0.00 67 1010.8
20260503014507 49 238 0.0 0.0 0.00 0.00 0.00 67 1010.9
20260503013003 50 238 0.0 0.0 0.00 0.00 0.00 66 1010.7
20260503011506 50 238 0.0 0.0 0.00 0.00 0.00 64 1010.9
20260503010002 51 238 0.0 0.0 0.00 0.00 0.00 60 1010.6
20260503004504 51 238 0.0 0.0 0.00 0.00 0.00 59 1010.4
20260503003002 52 227 0.0 0.0 0.00 0.00 0.00 59 1010.3
20260503001601 53 227 0.0 0.0 0.00 0.00 0.00 54 1010.1
20260503000111 55 227 0.0 0.0 0.00 0.00 0.00 55 1010.2
20260502234600 55 270 0.0 0.0 0.00 0.00 0.00 47 1010.0
20260502233102 56 223 0.0 0.0 0.00 0.00 0.00 47 1010.0
20260502231607 57 115 0.0 0.0 0.00 0.00 0.00 43 1010.0
20260502230116 58 278 0.0 0.0 0.00 0.00 0.00 49 1009.8
20260502224558 58 278 0.0 0.0 0.00 0.00 0.00 43 1009.8
20260502223058 59 138 0.0 0.0 0.00 0.00 0.00 42 1009.7
20260502221556 60 200 0.0 0.0 0.00 0.00 0.00 38 1009.6
20260502220056 60 205 0.0 0.0 0.00 0.00 0.00 37 1009.7
20260502214555 61 266 0.0 0.0 0.00 0.00 0.00 37 1009.7
20260502213054 60 243 0.0 0.0 0.00 0.00 0.00 39 1009.7
20260502211556 61 320 0.0 0.0 0.00 0.00 0.00 38 1009.5
20260502210052 61 206 0.0 0.0 0.00 0.00 0.00 41 1009.3
20260502204553 61 355 0.0 0.0 0.00 0.00 0.00 40 1009.4
20260502203050 60 51 0.0 0.0 0.00 0.00 0.00 42 1009.5
20260502201548 59 342 0.0 0.0 0.00 0.00 0.00 42 1009.6
20260502200047 60 72 0.0 0.0 0.00 0.00 0.00 40 1009.8
20260502194544 62 84 0.0 0.0 0.00 0.00 0.00 39 1010.0
20260502193045 62 331 0.0 0.0 0.00 0.00 0.00 37 1010.1